FW4370 Weather Reports


Display with metric or nautical units.
time (UTC)temp
F
wind
direction
speed
MPH
gust
MPH
rain 1hr
in
rain 24hr
in
rain mn
in
humidity
%
barometer
mb
20260503000004 72 138 2.0 6.0 0.00 0.00 0.00 11 1007.6
20260502234502 73 79 1.0 10.0 0.00 0.00 0.00 11 1007.6
20260502233001 74 84 3.0 8.0 0.00 0.00 0.00 11 1007.3
20260502231600 73 69 4.0 10.0 0.00 0.00 0.00 11 1007.5
20260502230056 74 158 2.0 7.0 0.00 0.00 0.00 11 1007.5
20260502224553 76 68 3.0 5.0 0.00 0.00 0.00 11 1007.6
20260502223046 76 141 2.0 8.0 0.00 0.00 0.00 11 1008.0
20260502221543 76 150 2.0 4.0 0.00 0.00 0.00 11 1008.3
20260502220039 75 184 2.0 11.0 0.00 0.00 0.00 11 1008.7
20260502214535 76 130 2.0 8.0 0.00 0.00 0.00 11 1008.9
20260502213030 75 344 1.0 10.0 0.00 0.00 0.00 12 1009.1
20260502211528 74 65 5.0 13.0 0.00 0.00 0.00 11 1009.4
20260502210024 75 65 2.0 13.0 0.00 0.00 0.00 12 1009.5
20260502204524 74 84 6.0 14.0 0.00 0.00 0.00 12 1009.8
20260502203018 72 193 3.0 13.0 0.00 0.00 0.00 12 1009.9
20260502201516 73 58 1.0 8.0 0.00 0.00 0.00 12 1010.2
20260502200114 73 76 6.0 9.0 0.00 0.00 0.00 12 1010.3
20260502194509 74 144 1.0 8.0 0.00 0.00 0.00 13 1010.4
20260502193007 73 300 2.0 11.0 0.00 0.00 0.00 13 1010.7
20260502191502 72 56 3.0 8.0 0.00 0.00 0.00 13 1010.9
20260502190110 71 116 5.0 11.0 0.00 0.00 0.00 14 1011.0
20260502184602 71 145 3.0 8.0 0.00 0.00 0.00 14 1011.2
20260502183109 71 45 1.0 10.0 0.00 0.00 0.00 14 1011.3
20260502181552 71 157 2.0 8.0 0.00 0.00 0.00 15 1011.7
20260502163026 64 60 5.0 10.0 0.00 0.00 0.00 18 1012.2
20260502161522 63 73 3.0 8.0 0.00 0.00 0.00 18 1012.3
20260502151507 60 62 1.0 6.0 0.00 0.00 0.00 20 1012.1
20260502123035 45 349 0.0 0.0 0.00 0.00 0.00 22 1010.8
20260502121540 43 349 0.0 0.0 0.00 0.00 0.00 22 1010.8
20260502114523 45 349 0.0 0.0 0.00 0.00 0.00 21 1010.7
20260502113018 44 349 0.0 0.0 0.00 0.00 0.00 21 1010.7
20260502111520 45 349 0.0 1.0 0.00 0.00 0.00 20 1010.7
20260502110017 45 349 0.0 0.0 0.00 0.00 0.00 20 1010.8
20260502104509 46 349 0.0 1.0 0.00 0.00 0.00 20 1010.7
20260502103005 47 17 0.0 0.0 0.00 0.00 0.00 20 1010.6
20260502101502 48 17 0.0 0.0 0.00 0.00 0.00 19 1010.7
20260502071525 52 73 0.0 0.0 0.00 0.00 0.00 16 1010.7
20260502070022 51 74 0.0 0.0 0.00 0.00 0.00 15 1010.6
20260502064517 53 74 0.0 2.0 0.00 0.00 0.00 15 1010.6
20260502063025 52 95 0.0 0.0 0.00 0.00 0.00 14 1010.4
20260502061512 52 95 0.0 0.0 0.00 0.00 0.00 13 1010.3
20260502060010 53 95 0.0 0.0 0.00 0.00 0.00 13 1010.2
20260502054508 54 95 0.0 0.0 0.00 0.00 0.00 13 1010.2
20260502053004 56 95 0.0 0.0 0.00 0.00 0.00 13 1010.0
20260502051504 58 79 0.0 5.0 0.00 0.00 0.00 13 1009.8
20260502050001 57 30 2.0 6.0 0.00 0.00 0.00 12 1009.9
20260502044559 57 316 0.0 1.0 0.00 0.00 0.00 12 1009.7
20260502043110 59 299 0.0 4.0 0.00 0.00 0.00 12 1009.4
20260502041619 59 1 0.0 3.0 0.00 0.00 0.00 11 1009.1
20260502040049 60 340 1.0 3.0 0.00 0.00 0.00 11 1009.0
20260502034548 61 43 0.0 2.0 0.00 0.00 0.00 11 1008.7
20260502033059 62 349 1.0 6.0 0.00 0.00 0.00 10 1008.4
20260502031541 62 84 2.0 6.0 0.00 0.00 0.00 10 1008.1
20260502030039 63 15 2.0 11.0 0.00 0.00 0.00 9 1007.8
20260502024537 64 23 4.0 11.0 0.00 0.00 0.00 9 1007.7
20260502023033 65 11 3.0 10.0 0.00 0.00 0.00 8 1007.3
20260502021528 66 112 2.0 14.0 0.00 0.00 0.00 8 1007.0
20260502020025 68 345 2.0 11.0 0.00 0.00 0.00 7 1006.7
20260502014527 70 302 3.0 12.0 0.00 0.00 0.00 7 1006.3
20260502013020 72 271 2.0 10.0 0.00 0.00 0.00 8 1006.0
20260502011517 72 49 5.0 12.0 0.00 0.00 0.00 8 1006.0
20260502010022 72 57 2.0 7.0 0.00 0.00 0.00 8 1005.7
20260502004515 72 330 1.0 4.0 0.00 0.00 0.00 8 1005.7
20260502003012 70 280 1.0 5.0 0.00 0.00 0.00 8 1005.7
20260502001511 71 326 2.0 6.0 0.00 0.00 0.00 8 1005.7